User: anonymous   Login
Location: Weston
(26.1283°N, 80.4075°W)
Time: 04:55:06
(UTC-04:00)
Language:

H-2A R/B - Orbit

View from above orbital plane
View from above orbital plane
View from above satellite
View from above satellite

Ground track
Ground track

The orbit data is extracted from the following two-line orbital elements,

1 26899U 01038B   18111.84964513 +.00001106 +00000-0 +35099-3 0  9995
2 26899 028.1482 299.9818 7116659 032.5035 356.0606 02.48876543144158
Epoch (UTC): 21 April 2018 20:23:29
Eccentricity: 0.7116659
inclination: 28.1482°
perigee height: 254 km
apogee height: 32991 km
right ascension of ascending node: 299.9818°
argument of perigee: 32.5035°
revolutions per day: 2.48876543
mean anomaly at epoch: 356.0606°
orbit number at epoch: 14415

The dashed part of the orbit path shows where the satellite is in the earth's shadow,  

DLR